Starlink 33765

operational
NORAD ID: 63473 Int'l Des: 2025-070 Owner: SPXS Country: US Constellation: starlink
LEOCIRCULAR

Starlink 33765について

説明を読み込み中...

リアルタイム位置

3D地球を読み込み中...

次回通過

高度履歴

Altitude vs Time

uPlot chart will show altitude changes over time

軌道要素

1 63473U 25070P 25354.95451953 .00015240 00000-0 56206-3 0 9991
2 63473 43.0032 344.5617 0003956 286.4443 73.5973 15.27584012 40936
Epoch: Dec 20, 2025 • Age: 8 hours

現在のステータス

高度 485.8 km
速度 7.62 km/s
衛星直下点 -21.44°S, 128.69°E
打ち上げ日 Apr 6, 2025
運用期間 0.7 years
タイプ internet

技術仕様

分類 Payload
質量 575.00 kg
乾燥質量 530.00 kg
総質量 575.00 kg
長さ 0.30 m
直径 4.10 m
スパン 29.00 m
形状 Box + pan
製造者 SPXS
バスタイプ Starlink V2MO
フェーズステータス In Orbit
所有者/国 SPXS/US

大規模コンステレーション

Loading constellations...